Weather at custom point

    39°02′52″N   77°28′22″W   America/New_York
temp.,
°C
wind,
m/s
gust,
m/s
humid.,
%
clouds,
%
prec.,
mm/h
press.,
hPa
HPBL,
m
21 june, mon
mon2123:00+24s41182100 0.0 1008380
02:00+21s3996100 0.0 1007253
05:00+21s2698100 0.0 1007179
08:00+23ssw239096 0.0 1007245
11:00+29s2262100 0.0 1005641
14:00+34s374316 0.0 10042344
17:00+23s48861 0.8 1002170
20:00+26ssw1277100 0.8 100333
22 june, tue
tue2223:00+23sw2388100 2.1 100685
02:00+21nw498677 2.1 1006309
05:00+19nw3785100 0.0 1007332
08:00+19nnw5881100 0.1 1010571
11:00+16n2598100 7.9 1011349
14:00+18n2491100 14.8 1012529
17:00+22n4769100 0.4 10121273
20:00+18ne2375100 0.4 101469
23 june, wed
wed2323:00+14nnw227764 0.0 101729
02:00+12wnw22790 0.0 101920
05:00+11nw22752 0.0 102035
08:00+14nnw236585 0.0 1023198
11:00+20nne23480 0.0 10241072
14:00+22nne22444 0.0 10241746
17:00+23ne11455 0.0 10231489
20:00+19e2366100 0.0 102459
24 june, thu
thu2423:00+15se226942 0.0 102629
02:00+13ssw227318 0.0 102624
05:00+12sw117435 0.0 102710
08:00+16e11684 0.0 1028154
11:00+22se34480 0.0 10271233
14:00+25ese34390 0.0 10261634
17:00+25ese44410 0.0 10251623
20:00+19ese37642 0.0 1024146
25 june, fri
fri2523:00+16ese378418 0.0 1025151
02:00+15n019457 0.0 102546
05:00+17n2292100 0.0 102497
08:00+18n2390100 0.0 1024235
11:00+22ene2281100 0.0 1024589
14:00+24ene2375100 0.1 1022877
17:00+26se3373100 0.5 1019948
20:00+22se369335 1.4 1019179